Regional Weather Roundup
Issued by NWS Northern Indiana

Home | Current Version | Previous Version | Graphics & Text | Print | Product List | Glossary On
Versions: 1 2 3 4 5 6 7 8 9 10 11 12 13 14 15 16 17 18 19 20 21 22 23 24 25 26 27 28 29 30 31 32 33 34 35 36 37 38 39 40 41 42 43 44 45 46 47 48 49 50
000
ASUS43 KIWX 040110
RWRIWX

KIWX WEATHER ROUNDUP
NATIONAL WEATHER SERVICE NORTHERN INDIANA
800 PM EST TUE MAR 03 2015

NOTE: "FAIR" INDICATES FEW OR NO CLOUDS BELOW 12,000 FEET WITH NO
SIGNIFICANT WEATHER AND/OR OBSTRUCTIONS TO VISIBILITY.

* THESE STATIONS ARE NOT UNDER NWS QUALITY CONTROL. THEY ALSO MAY NOT
  REPORT WEATHER SUCH AS PRECIPITATION OR FOG.

INZ001>027-040200-
NORTHERN INDIANA

CITY           SKY/WX    TMP DP  RH WIND       PRES   REMARKS
GARY*          CLOUDY    36  27  69 W12G28    29.79R
VALPARAISO     CLOUDY    34  30  85 W10       29.78R WCI  26
MICHIGAN CITY* CLOUDY    34  28  80 W9        29.78R WCI  26
LAPORTE*       CLOUDY    36  32  85 W6        29.78R
KNOX*            N/A     34  28  80 W10       29.77R WCI  26
SOUTH BEND     CLOUDY    35  32  88 W14       29.76R WCI  26
ELKHART*       CLOUDY    36  28  75 W13G20    29.74R
GOSHEN         CLOUDY    35  31  85 W12       29.74R WCI  27
MONTICELLO*    CLOUDY    34  33  94 W9G16     29.79R WCI  27
LOGANSPORT*    CLOUDY    34  32  93 W12G18    29.80R WCI  25
ROCHESTER*     CLOUDY    36  34  93 W8        29.78R
WARSAW*        CLOUDY    34  32  93 W12G20    29.75S WCI  25
ANGOLA*        CLOUDY    36  27  69 W10       29.72R
FORT WAYNE     CLOUDY    36  33  89 W20       29.75S
HUNTINGTON*    CLOUDY    35  30  82 W15G21    29.77R WCI  25
PERU/GRISSOM   CLOUDY    35  33  91 W14       29.77R WCI  26
MARION*        CLOUDY    35  33  93 W17       29.81R WCI  24

$$
INZ028>050-040200-
CENTRAL INDIANA

CITY           SKY/WX    TMP DP  RH WIND       PRES   REMARKS
LAFAYETTE      CLOUDY    35  33  92 W10       29.82R WCI  27
KOKOMO*        CLOUDY    36  34  93 W16       29.81R
MUNCIE*        MIX PCPN  37  35  92 W17       29.79R
INDIANAPOLIS   LGT RAIN  37  35  92 W12       29.82R

$$
MIZ043>046-050>051-056>058-064>065-071>073-077>080-040200-
SOUTHWEST LOWER MICHIGAN

CITY           SKY/WX    TMP DP  RH WIND       PRES   REMARKS
BATTLE CREEK   CLOUDY    35  28  75 W17       29.71R WCI  25
BENTON HARBOR  CLOUDY    33  30  88 W14       29.74R WCI  23
COLDWATER*     CLOUDY    34  31  88 W17G26    29.71R WCI  23
HILLSDALE*     CLOUDY    35  33  91 W22G28    29.69R WCI  23
HOLLAND        CLOUDY    34  28  79 W16G24    29.73R WCI  24
GRAND RAPIDS   CLOUDY    32  27  81 W20G29    29.69R WCI  20
KALAMAZOO      CLOUDY    34  28  79 W14G26    29.73R WCI  25
STURGIS*       CLOUDY    34  30  86 W13G20    29.72R WCI  25
THREE RIVERS*  CLOUDY    34  30  83 W15G23    29.73R WCI  24

$$
OHZ001>008-015>018-024>025-040200-
NORTHWEST OHIO

CITY           SKY/WX    TMP DP  RH WIND       PRES   REMARKS
WAUSEON*       CLOUDY    36  34  93 W16G25    29.71R
DEFIANCE       CLOUDY    38  33  82 W10G20    29.74R
FINDLAY        CLOUDY    37  35  92 W17       29.72R FOG
TOLEDO EXPRESS CLOUDY    35  32  88 W21G26    29.70R WCI  24
TOLEDO METCALF CLOUDY    37  33  85 W17G33    29.70R
LIMA           CLOUDY    38  32  79 W24G30    29.75R

$$
AND FOR LAKE MICHIGAN COASTAL AND OPEN LAKE BUOY OBSERVATIONS

STATION/POSITION TEMP    WIND        PRES    VSBY  WAVE
                 AIR SEA DIR/SP/G                  HT/PER
                 (F)     (DEG/KT/KT) (MB)    (MI)  (FT/S)
CALUMET HARBOR    35     260/  6/ 12 1006.9S
MICHIGAN CITY     33     240/ 14/ 17   N/A
SAINT JOSEPH      33     230/ 10/ 14 1007.5F

$$
&&


USA.gov is the U.S. government's official web portal to all federal, state and local government web resources and services.